"TOA5","AWS1","CR1000","7964","CR1000.Std.14","CPU:AWS1_114.CR1","64363","TBL110"
"TIMESTAMP","RECORD","Wind_spd_WVc(1)","Wind_spd_WVc(2)","Air_Temp_Avg","Humidity_Avg","SW_upper_Wm2_Avg","Rain_Tot","Press_Avg","Issui_Tot","Depth_cm","SR50A_Raw","Quality","Ground_Temp_Avg(1)","Ground_Temp_Avg(2)","SW_lower_Wm2_Avg","Albedo_Avg","SWC_per(1)","SWC_per(2)","Period(1)","Period(2)"
"TS","RN","","","","","","","","","","","","","","","","","","",""
"","","WVc","WVc","Avg","Avg","Avg","Tot","Avg","Tot","Smp","Smp","Smp","Avg","Avg","Avg","Avg","Smp","Smp","Smp","Smp"
"2017-11-01 00:00:00",312541,0.05,174.5,1.662,85.5,0,0,871.892,0,10.68,3.061,276,7.779,9.42,0.4436797,0,52.05,59.5,33.8,35.56
"2017-11-01 00:10:00",312542,0.198,173.9,1.47,85.8,0,0,871.9595,0,6.183,3.108,237,7.776,9.42,0.4360954,0,52.05,59.5,33.8,35.56
"2017-11-01 00:20:00",312543,0.219,139.3,2.531,77.77,0,0,871.9152,0,10.99,3.056,325,7.707,9.43,1.797472,0,52.1,59.56,33.81,35.58
"2017-11-01 00:30:00",312544,0.143,21.93,2.881,76.89,0,0,871.8689,0,-28.88,3.448,192,7.711,9.43,1.372753,0,52.05,59.5,33.8,35.56
"2017-11-01 00:40:00",312545,0.228,149.1,3.101,76.37,0,0,871.7783,0,10.78,3.06,280,7.726,9.43,1.236236,0,52.05,59.56,33.8,35.58
"2017-11-01 00:50:00",312546,0.277,173.2,1.662,82.7,0,0,871.7719,0,10.95,3.061,250,7.749,9.42,0.04929774,0,52.05,59.5,33.8,35.56
"2017-11-01 01:00:00",312547,0.627,188.9,1.388,85,0,0,871.7108,0,11.04,3.061,268,7.695,9.39,0.2995786,0,52.05,59.5,33.8,35.56
"2017-11-01 01:10:00",312548,0.389,197.3,1.44,85.8,0,0,871.8478,0,10.47,3.067,294,7.691,9.35,0.4436797,0,52.05,59.5,33.8,35.56
"2017-11-01 01:20:00",312549,0.625,192.3,1.254,86.9,0,0,871.8899,0,7.076,3.103,306,7.649,9.34,0.3374999,0,52.05,59.5,33.8,35.56
"2017-11-01 01:30:00",312550,0.497,192.7,1.085,87.1,0,0,871.8899,0,3.395,3.139,220,7.648,9.34,0.3640448,0,52.05,59.5,33.8,35.56
"2017-11-01 01:40:00",312551,0.53,188,1.185,85.9,0,0,871.8942,0,-27.81,3.452,184,7.681,9.35,0.4891853,0,52.05,59.44,33.8,35.55
"2017-11-01 01:50:00",312552,0.368,184.9,1.214,85.6,0,0,871.8984,0,-27.02,3.443,188,7.635,9.38,0.5801965,0,52.05,59.5,33.8,35.56
"2017-11-01 02:00:00",312553,0.469,194.2,1.575,84.2,0,0,871.7824,0,-31.1,3.481,193,7.606,9.38,0.9366574,0,52.05,59.44,33.8,35.55
"2017-11-01 02:10:00",312554,0.452,191.1,1.235,85.5,0,0,871.833,0,-27.08,3.443,185,7.609,9.38,0.3337116,0,51.99,59.5,33.79,35.56
"2017-11-01 02:20:00",312555,0.55,189,1.24,85.8,0,0,871.8456,0,-27.78,3.45,181,7.609,9.33,0.5726173,0,51.99,59.5,33.79,35.56
"2017-11-01 02:30:00",312556,0.293,173.1,1.397,85.2,0,0,871.8393,0,-26.62,3.439,183,7.592,9.32,0.5081477,0,51.99,59.44,33.79,35.55
"2017-11-01 02:40:00",312557,0.483,184.3,1.238,85.9,0,0,871.8309,0,-28.12,3.454,194,7.646,9.33,0.553652,0,52.05,59.5,33.8,35.56
"2017-11-01 02:50:00",312558,0.471,188.9,1.208,86.4,0,0,871.6708,0,-28.65,3.459,192,7.605,9.34,0.5195224,0,51.99,59.5,33.79,35.56
"2017-11-01 03:00:00",312559,0.465,185.2,1.222,87,0,0,871.8183,0,-28.63,3.458,189,7.539,9.34,0.5271066,0,51.99,59.44,33.79,35.55
"2017-11-01 03:10:00",312560,0.572,187.8,1.083,87.7,0,0,871.8541,0,-29.74,3.471,176,7.523,9.33,0.424719,0,51.99,59.44,33.79,35.55
"2017-11-01 03:20:00",312561,0.542,187.1,1.044,88.5,0,0,871.7951,0,5.549,3.118,253,7.556,9.3,0.4474718,0,51.99,59.44,33.79,35.55
"2017-11-01 03:30:00",312562,0.55,183.5,0.976,88.8,0,0,871.637,0,5.647,3.118,246,7.505,9.27,0.3640448,0,51.99,59.44,33.79,35.55
"2017-11-01 03:40:00",312563,0.393,184.6,1.558,85.8,0,0,871.6244,0,6.655,3.105,283,7.487,9.27,0.9745785,0,51.99,59.44,33.79,35.55
"2017-11-01 03:50:00",312564,0.215,175,1.649,84.7,0,0,871.6118,0,6.836,3.101,261,7.486,9.29,0.8911515,0,51.99,59.44,33.79,35.55
"2017-11-01 04:00:00",312565,0.417,192.1,1.538,85.1,0,0,871.6328,0,8.62,3.084,314,7.438,9.3,0.4853932,0,51.99,59.38,33.79,35.54
"2017-11-01 04:10:00",312566,0.317,170.9,2.146,83.2,0,0,871.637,0,11.76,3.051,366,7.432,9.3,1.194522,0,51.99,59.38,33.79,35.54
"2017-11-01 04:20:00",312567,0.257,198,2.087,84.2,0,0,871.637,0,12.04,3.046,304,7.432,9.3,0.8153088,0,51.94,59.38,33.77,35.54
"2017-11-01 04:30:00",312568,0.174,176.2,2.135,84.7,0,0,871.637,0,12.22,3.045,369,7.451,9.29,0.6522471,0,51.99,59.38,33.79,35.54
"2017-11-01 04:40:00",312569,0.147,164.2,3.079,82.3,0,0,871.8625,0,-29.46,3.45,194,7.472,9.29,1.63441,0,51.94,59.38,33.77,35.54
"2017-11-01 04:50:00",312570,0.05,116.8,3.484,79.98,0,0,871.97,0,11.27,3.052,248,7.43,9.27,1.107303,0,51.99,59.38,33.79,35.54
"2017-11-01 05:00:00",312571,0.051,200.6,3.027,84.1,0,0,871.9363,0,11.57,3.044,238,7.409,9.28,0.6939605,0,51.94,59.38,33.77,35.54
"2017-11-01 05:10:00",312572,0.025,206.6,3.332,83.1,0,0,871.8899,0,11.79,3.043,238,7.413,9.27,0.8418538,0,51.99,59.38,33.79,35.54
"2017-11-01 05:20:00",312573,0.041,203.9,3.704,82.3,0,0,871.8899,0,11.66,3.046,233,7.381,9.25,1.035253,0,51.99,59.38,33.79,35.54
"2017-11-01 05:30:00",312574,0.187,188.1,2.823,85.6,0,0,871.8984,0,11.75,3.048,220,7.347,9.25,0.1516854,0,51.99,59.38,33.79,35.54
"2017-11-01 05:40:00",312575,0.073,182.3,3.263,85.2,0,0,871.9405,0,11.31,3.048,236,7.345,9.24,0.7394661,0,51.99,59.32,33.79,35.52
"2017-11-01 05:50:00",312576,0.17,175.7,3.259,84.7,0,0,871.8899,0,12.38,3.036,231,7.338,9.19,0.792556,0,51.94,59.32,33.77,35.52
"2017-11-01 06:00:00",312577,0.212,146.2,3.844,81.8,0,0,871.7614,0,12.27,3.038,232,7.294,9.17,1.36896,0,51.94,59.32,33.77,35.52
"2017-11-01 06:10:00",312578,0.247,172.3,4.115,82,0,0,871.6581,0,11.85,3.036,236,7.264,9.17,1.494101,0,51.99,59.32,33.79,35.52
"2017-11-01 06:20:00",312579,0.141,164.7,4.205,81.1,0.09439135,0,871.7571,0,11.38,3.044,233,7.262,9.17,1.198314,0.313,51.94,59.32,33.77,35.52
"2017-11-01 06:30:00",312580,0.048,152.4,3.959,82.8,2.812075,0,871.7445,0,12.14,3.036,238,7.301,9.17,1.08455,0.424,51.94,59.32,33.77,35.52
"2017-11-01 06:40:00",312581,0.133,159.9,3.584,83.8,5.954521,0,871.8815,0,11.63,3.047,245,7.295,9.17,1.141432,0.199,51.94,59.32,33.77,35.52
"2017-11-01 06:50:00",312582,0.469,173.8,2.786,88.1,10.43811,0,871.8899,0,11.65,3.049,242,7.259,9.17,1.543398,0.146,51.94,59.32,33.77,35.52
"2017-11-01 07:00:00",312583,0.252,175,2.825,88.5,15.59817,0,871.8899,0,12.08,3.038,281,7.259,9.17,2.662078,0.167,51.94,59.32,33.77,35.52
"2017-11-01 07:10:00",312584,0.306,174.4,3.438,84.1,22.1741,0,871.9764,0,11.52,3.046,269,7.259,9.17,6.62865,0.296,51.94,59.26,33.77,35.51
"2017-11-01 07:20:00",312585,0.177,285.9,4.695,74.6,25.61545,0,872.225,0,10.35,3.05,316,7.259,9.17,9.332442,0.357,51.94,59.26,33.77,35.51
"2017-11-01 07:30:00",312586,0.319,187.7,3.912,81,39.12128,0,872.3895,0,11.93,3.039,431,7.259,9.17,11.14508,0.304,51.94,59.26,33.77,35.51
"2017-11-01 07:40:00",312587,0.267,190.9,4.256,78.99,149.04,0,872.3304,0,9.03,3.064,289,7.259,9.17,15.58188,0.107,51.94,59.26,33.77,35.51
"2017-11-01 07:50:00",312588,0.223,189.2,4.875,77.32,99.89357,0,872.2672,0,7.482,3.076,252,7.259,9.17,18.1264,0.217,51.94,59.26,33.77,35.51
"2017-11-01 08:00:00",312589,0.148,147.5,5.306,71.02,68.69724,0,872.3825,0,6.278,3.086,220,7.259,9.17,18.28567,0.288,51.94,59.26,33.77,35.51
"2017-11-01 08:10:00",312590,0.099,162.7,6.16,72.34,79.42638,0,872.3082,0,5.211,3.092,215,7.259,9.17,21.8389,0.284,51.94,59.26,33.77,35.51
"2017-11-01 08:20:00",312591,0.18,137.1,6.845,73.1,154.7107,0,872.114,0,5.468,3.084,205,7.229,9.12,30.05256,0.199,51.94,59.26,33.77,35.51
"2017-11-01 08:30:00",312592,0.289,139.8,7.261,68.93,154.1598,0,872.0594,0,5.428,3.085,201,7.159,9.07,21.89076,0.142,51.94,59.26,33.77,35.51
"2017-11-01 08:40:00",312593,0.403,125.8,7.549,62.53,154.3303,0,872.0519,0,4.53,3.09,206,7.128,9.03,24.02267,0.154,51.94,59.2,33.77,35.5
"2017-11-01 08:50:00",312594,0.305,128.9,7.672,60.5,112.8614,0,871.8204,0,5.312,3.085,222,7.101,9.02,15.62695,0.138,51.94,59.2,33.77,35.5
"2017-11-01 09:00:00",312595,0.302,17.93,7.905,52.19,86.37991,0,871.9021,0,5.592,3.078,247,7.089,9,18.89776,0.219,51.94,59.2,33.77,35.5
"2017-11-01 09:10:00",312596,0.501,319.4,8.05,55.35,90.68366,0,872.0272,0,6.096,3.074,219,7.085,9.03,22.28271,0.245,51.94,59.2,33.77,35.5
"2017-11-01 09:20:00",312597,0.382,343.2,8.19,58.74,97.94884,0,871.9243,0,6.155,3.072,228,7.083,9.05,25.71709,0.267,51.88,59.2,33.76,35.5
"2017-11-01 09:30:00",312598,0.458,333,8.48,56.61,175.6888,0,871.7131,0,5.91,3.073,221,7.082,9.07,33.53756,0.196,51.88,59.2,33.76,35.5
"2017-11-01 09:40:00",312599,0.454,312.6,8.73,56.35,229.4453,0,871.711,0,5.52,3.075,210,7.077,9.03,34.70065,0.151,51.94,59.2,33.77,35.5
"2017-11-01 09:50:00",312600,0.369,325.8,9.01,56,236.2803,0,871.7105,0,5.057,3.079,208,7.062,9,36.22624,0.154,51.94,59.2,33.77,35.5
"2017-11-01 10:00:00",312601,0.199,302.9,9.15,57.41,261.9556,0,871.7035,0,4.983,3.078,260,7.018,8.97,40.15598,0.153,51.88,59.2,33.76,35.5
"2017-11-01 10:10:00",312602,0.122,317.6,9.25,59.12,218.4572,0,871.7034,0,5.996,3.07,248,6.97,8.94,30.88268,0.141,51.88,59.2,33.76,35.5
"2017-11-01 10:20:00",312603,0.288,346.7,8.86,63.47,251.9005,0,871.7518,0,5.384,3.077,281,6.958,8.93,35.79667,0.142,51.94,59.2,33.77,35.5
"2017-11-01 10:30:00",312604,0.194,133.8,9.31,58.17,266.6793,0,871.7033,0,6.031,3.065,234,6.952,8.92,38.65356,0.145,51.88,59.2,33.76,35.5
"2017-11-01 10:40:00",312605,0.286,147.2,9.93,49.79,253.2327,0,871.6718,0,-34.59,3.463,216,6.925,8.91,37.74391,0.149,51.94,59.14,33.77,35.48
"2017-11-01 10:50:00",312606,0.639,139.5,9.81,44.37,236.4186,0,871.4717,0,-34.52,3.465,218,6.92,8.92,36.08026,0.153,51.88,59.2,33.76,35.5
"2017-11-01 11:00:00",312607,0.379,134,9.73,45.45,262.8812,0,871.5347,0,-32.7,3.445,220,6.974,8.94,40.86645,0.155,51.88,59.14,33.76,35.48
"2017-11-01 11:10:00",312608,0.529,141.3,9.72,46.97,280.6242,0,871.4505,0,5.728,3.068,264,7.057,8.93,43.98489,0.157,51.88,59.14,33.76,35.48
"2017-11-01 11:20:00",312609,0.284,153,10.18,49.95,303.0255,0,871.4286,0,2.941,3.093,277,7.049,8.93,48.10012,0.158,51.88,59.14,33.76,35.48
"2017-11-01 11:30:00",312610,0.504,144,10.61,47.35,338.8173,0,871.3943,0,1.084,3.107,228,7.065,8.9,57.60714,0.169,51.88,59.14,33.76,35.48
"2017-11-01 11:40:00",312611,1.03,140.4,11.38,35.81,470.092,0,871.1321,0,-30.08,3.408,202,7.089,8.92,98.17311,0.222,51.88,59.14,33.76,35.48
"2017-11-01 11:50:00",312612,0.924,127.8,11.97,30.46,644.3369,0,870.8679,0,-28.48,3.392,194,7.078,8.88,94.73608,0.146,51.88,59.14,33.76,35.48
"2017-11-01 12:00:00",312613,0.858,138.9,12.17,30.61,599.9088,0,870.6559,0,9.62,3.018,310,7.062,8.83,90.73805,0.15,51.82,59.14,33.75,35.48
"2017-11-01 12:10:00",312614,0.804,130.5,11.9,29.54,532.0095,0,870.4719,0,-27.45,3.381,200,7.156,8.83,82.33547,0.153,51.88,59.14,33.76,35.48
"2017-11-01 12:20:00",312615,0.493,117.1,12.11,28.9,351.144,0,870.3406,0,-31.48,3.42,199,7.121,8.82,51.58875,0.147,51.82,59.14,33.75,35.48
"2017-11-01 12:30:00",312616,0.353,90.3,12.16,32.4,293.1273,0,870.311,0,-30.2,3.408,209,7.177,8.83,42.95126,0.146,51.88,59.14,33.76,35.48
"2017-11-01 12:40:00",312617,0.349,17.01,11.6,35.79,254.7019,0,870.1446,0,-30.45,3.413,200,7.178,8.78,37.09079,0.146,51.88,59.08,33.76,35.47
"2017-11-01 12:50:00",312618,0.485,51.61,11.54,38.36,248.5452,0,870.0898,0,8.6,3.031,360,7.213,8.76,36.49602,0.147,51.88,59.08,33.76,35.47
"2017-11-01 13:00:00",312619,0.223,326.5,11.47,43.73,241.3238,0,869.873,0,-31.61,3.427,187,7.262,8.72,35.41258,0.147,51.82,59.08,33.75,35.47
"2017-11-01 13:10:00",312620,0.25,31.97,11.39,45.67,259.1219,0,869.8415,0,10.69,3.011,355,7.285,8.7,38.20073,0.147,51.82,59.08,33.75,35.47
"2017-11-01 13:20:00",312621,0.124,284.7,11.41,46.39,231.7018,0,869.8309,0,-31.47,3.423,207,7.331,8.71,33.62831,0.145,51.82,59.14,33.75,35.48
"2017-11-01 13:30:00",312622,0.106,293.7,11.35,47.65,203.4958,0,869.8015,0,-32,3.43,228,7.378,8.72,28.96876,0.142,51.82,59.14,33.75,35.48
"2017-11-01 13:40:00",312623,0.164,333.4,11.42,47.93,212.3517,0,869.671,0,-31.18,3.422,249,7.387,8.72,30.51058,0.144,51.82,59.08,33.75,35.47
"2017-11-01 13:50:00",312624,0.201,333.5,11.4,46.65,220.7243,0,869.5889,0,4.893,3.068,341,7.443,8.69,31.62433,0.143,51.77,59.08,33.73,35.47
"2017-11-01 14:00:00",312625,0.067,315.7,11.45,45.24,209.0239,0,869.5362,0,4.107,3.075,312,7.455,8.7,29.38926,0.141,51.77,59.08,33.73,35.47
"2017-11-01 14:10:00",312626,0.176,162,11.82,45.38,167.6914,0,869.5573,0,-33.26,3.439,208,7.524,8.65,22.7333,0.135,51.82,59.08,33.75,35.47
"2017-11-01 14:20:00",312627,0.154,80.2,11.76,46.32,130.6103,0,869.5889,0,-0.989,3.123,236,7.526,8.64,16.7517,0.128,51.77,59.08,33.73,35.47
"2017-11-01 14:30:00",312628,0.21,89.1,11.72,47.84,92.17437,0,869.5939,0,-31.94,3.427,202,7.59,8.65,10.46709,0.111,51.82,59.08,33.75,35.47
"2017-11-01 14:40:00",312629,0.14,41.1,11.46,47.95,53.91526,0,869.5641,0,-32.86,3.437,218,7.658,8.69,5.909919,0.109,51.82,59.08,33.75,35.47
"2017-11-01 14:50:00",312630,0.034,41.36,11.51,47.72,68.1045,0,869.5964,0,0.276,3.113,220,7.711,8.71,8.051014,0.113,51.82,59.08,33.75,35.47
"2017-11-01 15:00:00",312631,0.222,101.4,11.38,45.37,114.1998,0,869.5079,0,318,0,0,7.729,8.75,15.82315,0.139,51.77,59.08,33.73,35.47
"2017-11-01 15:10:00",312632,0.49,51.47,11.48,37.79,83.10876,0,869.509,0,-31.57,3.424,197,7.801,8.78,11.43615,0.137,51.77,59.08,33.73,35.47
"2017-11-01 15:20:00",312633,0.291,97.4,11.58,40.19,74.81529,0,869.4266,0,-31.68,3.424,200,7.839,8.81,10.33007,0.138,51.77,59.08,33.73,35.47
"2017-11-01 15:30:00",312634,0.213,88.2,11.58,38.55,59.56696,0,869.4529,0,-30.35,3.412,228,7.84,8.81,7.567659,0.126,51.77,59.08,33.73,35.47
"2017-11-01 15:40:00",312635,0.143,87.4,11.48,37.84,37.373,0,869.4958,0,-30.88,3.419,199,7.957,8.81,3.914589,0.103,51.71,59.08,33.72,35.47
"2017-11-01 15:50:00",312636,0.126,84.5,10.96,40,20.689,0,869.6771,0,-28.93,3.402,204,7.972,8.8,1.14823,0.055,51.71,59.08,33.72,35.47
"2017-11-01 16:00:00",312637,0.179,82.3,10.86,39.6,16.10237,0,869.6813,0,-31.35,3.426,198,7.987,8.75,0.9208584,0.056,51.77,59.08,33.73,35.47
"2017-11-01 16:10:00",312638,0,0,10.43,41.39,13.02889,0,869.6813,0,-31.05,3.428,203,7.977,8.77,0.3183214,0.024,51.71,59.03,33.72,35.45
"2017-11-01 16:20:00",312639,0.132,154.2,9.97,42.11,10.68644,0,869.675,0,3.696,3.087,261,8.01,8.76,0.3259005,0.031,51.71,59.03,33.72,35.45
"2017-11-01 16:30:00",312640,0.036,116.1,10.1,42.79,8.265386,0,869.6581,0,5.206,3.071,328,8.01,8.75,0.7275919,0.09,51.71,59.03,33.72,35.45
"2017-11-01 16:40:00",312641,0.082,293,9.98,47.3,5.671399,0,869.6813,0,1.398,3.111,212,8,8.69,0.6063265,0.105,51.66,59.03,33.7,35.45
"2017-11-01 16:50:00",312642,0.113,305.5,9.71,49.05,1.862954,0,869.774,0,3.094,3.096,222,7.993,8.7,0.231162,0.089,51.71,59.03,33.72,35.45
"2017-11-01 17:00:00",312643,0,0,9.12,52.27,0,0,869.934,0,2.029,3.111,205,7.998,8.69,0,0,51.71,59.03,33.72,35.45
"2017-11-01 17:10:00",312644,0.185,195.1,8.04,58.08,0,0,869.9319,0,2.061,3.115,221,8.01,8.69,0,0,51.71,59.03,33.72,35.45
"2017-11-01 17:20:00",312645,0.083,190.2,7.457,61.42,0,0,869.9045,0,2.971,3.111,225,8.03,8.71,0,0,51.71,59.03,33.72,35.45
"2017-11-01 17:30:00",312646,0.243,189.5,7.24,60.88,0,0,869.8772,0,3.568,3.104,237,8.06,8.75,0,0,51.71,59.03,33.72,35.45
"2017-11-01 17:40:00",312647,0.245,189.4,6.691,64.9,0,0,869.9066,0,4.293,3.101,244,8.11,8.78,0,0,51.71,59.03,33.72,35.45
"2017-11-01 17:50:00",312648,0.434,187.4,6.45,65.48,0,0,869.934,0,3.264,3.113,217,8.15,8.8,0,0,51.66,59.03,33.7,35.45
"2017-11-01 18:00:00",312649,0.466,185.7,5.922,68.32,0,0,869.9675,0,3.711,3.11,218,8.17,8.82,0,0,51.71,59.03,33.72,35.45
"2017-11-01 18:10:00",312650,0.106,185.6,5.787,67.63,0,0,869.9988,0,3.892,3.107,217,8.21,8.83,0,0,51.66,58.97,33.7,35.44
"2017-11-01 18:20:00",312651,0.152,185.2,6.252,62.47,0,0,870.173,0,3.609,3.111,214,8.18,8.85,0.1364699,0,51.71,58.97,33.72,35.44
"2017-11-01 18:30:00",312652,0.222,184.3,5.969,61.96,0,0,870.1824,0,2.814,3.115,217,8.11,8.85,0.1554243,0,51.66,58.97,33.7,35.44
"2017-11-01 18:40:00",312653,0.277,184.3,6.045,61.25,0,0,870.2743,0,4.466,3.103,238,8.12,8.85,0.08339839,0,51.66,58.97,33.7,35.44
"2017-11-01 18:50:00",312654,0.394,184.3,6.255,56.23,0,0,870.4279,0,2.044,3.126,214,8.1,8.86,0.3677111,0,51.66,58.97,33.7,35.44
"2017-11-01 19:00:00",312655,0.054,184.3,5.955,57.38,0,0,870.5257,0,3.428,3.107,216,8.07,8.85,0.185751,0,51.66,58.97,33.7,35.44
"2017-11-01 19:10:00",312656,0.012,26.33,7.584,47.11,0,0,870.5218,0,2.488,3.111,230,8.08,8.83,1.580779,0,51.66,58.97,33.7,35.44
"2017-11-01 19:20:00",312657,0.257,168.3,6.269,55.8,0,0,870.4481,0,2.044,3.126,227,8.1,8.82,0.1137251,0,51.66,58.97,33.7,35.44
"2017-11-01 19:30:00",312658,0.429,177.2,5.557,58.5,0,0,870.3764,0,2.396,3.123,217,8.12,8.82,0.007581673,0,51.66,58.91,33.7,35.43
"2017-11-01 19:40:00",312659,0.404,186.1,5.449,58.95,0,0,870.3512,0,3.372,3.116,215,8.04,8.82,0,0,51.6,58.97,33.69,35.44
"2017-11-01 19:50:00",312660,0.282,179.6,5.086,60.27,0,0,870.2795,0,2.92,3.12,229,7.952,8.83,0.01516335,0,51.6,58.91,33.69,35.43
"2017-11-01 20:00:00",312661,0.132,198.2,6.201,50.41,0,0,870.2542,0,1.688,3.13,214,7.961,8.85,0.8643107,0,51.66,58.91,33.7,35.43
"2017-11-01 20:10:00",312662,0.443,188.8,5.307,56.44,0,0,870.2648,0,2.993,3.12,237,8.03,8.86,0,0,51.66,58.91,33.7,35.43
"2017-11-01 20:20:00",312663,0.266,188.9,5.353,55.24,0,0,870.25,0,4.219,3.104,245,8.03,8.86,0.2388227,0,51.6,58.91,33.69,35.43
"2017-11-01 20:30:00",312664,0.176,188.9,5.705,54.08,0,0,870.2795,0,4.462,3.104,256,8.03,8.88,0.2729402,0,51.6,58.91,33.69,35.43
"2017-11-01 20:40:00",312665,0.601,189.8,5.098,57.88,0,0,870.2838,0,5.161,3.098,294,8.03,8.9,0.07202728,0,51.66,58.91,33.7,35.43
"2017-11-01 20:50:00",312666,0.411,195.4,5.321,57.18,0,0,870.309,0,5.469,3.094,283,7.922,8.91,0.1668006,0,51.6,58.91,33.69,35.43
"2017-11-01 21:00:00",312667,0.613,189.7,5.274,57.88,0,0,870.4396,0,5.047,3.101,279,7.876,8.92,0.0871908,0,51.6,58.91,33.69,35.43
"2017-11-01 21:10:00",312668,0.612,188.4,5.059,60.24,0,0,870.4882,0,4.971,3.102,282,7.901,8.93,0,0,51.66,58.91,33.7,35.43
"2017-11-01 21:20:00",312669,0.698,185.2,4.795,61.8,0,0,870.3469,0,5.043,3.102,262,7.935,8.93,0,0,51.6,58.85,33.69,35.41
"2017-11-01 21:30:00",312670,0.754,188.1,4.659,62.98,0,0,870.2753,0,4.929,3.105,261,7.955,8.95,0,0,51.6,58.85,33.69,35.41
"2017-11-01 21:40:00",312671,0.768,188.4,4.537,64.15,0,0,870.2626,0,5.481,3.099,278,7.9,8.98,0,0,51.6,58.91,33.69,35.43
"2017-11-01 21:50:00",312672,0.668,193.2,4.879,59.8,0,0,870.2689,0,5.857,3.095,284,7.848,9.01,0.189571,0,51.6,58.91,33.69,35.43
"2017-11-01 22:00:00",312673,0.607,187.4,4.778,61.4,0,0,870.2858,0,5.432,3.098,292,7.826,9.01,0,0,51.6,58.85,33.69,35.41
"2017-11-01 22:10:00",312674,0.475,190.2,4.873,61.16,0,0,870.3238,0,5.375,3.101,262,7.863,9.03,0.0265403,0,51.6,58.85,33.69,35.41
"2017-11-01 22:20:00",312675,0.668,192.8,4.734,61.96,0,0,870.2858,0,5.528,3.099,278,7.9,9.02,0.05687101,0,51.6,58.85,33.69,35.41
"2017-11-01 22:30:00",312676,0.394,193.4,4.777,61.64,0,0,870.2311,0,4.962,3.1,262,7.905,9.01,0.2691968,0,51.6,58.85,33.69,35.41
"2017-11-01 22:40:00",312677,0.564,194,4.867,61.27,0,0,870.0267,0,4.722,3.104,238,7.86,9.02,0.1630392,0,51.55,58.85,33.68,35.41
"2017-11-01 22:50:00",312678,0.61,192.2,4.975,60.16,0,0,870.0267,0,4.983,3.1,243,7.827,9.02,0.1440819,0,51.6,58.85,33.69,35.41
"2017-11-01 23:00:00",312679,0.525,195.8,5.135,59.19,0,0,870.0646,0,5.631,3.096,273,7.792,9.02,0.1668297,0,51.6,58.91,33.69,35.43
"2017-11-01 23:10:00",312680,0.662,190,4.787,61.86,0,0,870.0289,0,6.183,3.092,270,7.785,9.01,0,0,51.55,58.91,33.68,35.43
"2017-11-01 23:20:00",312681,0.563,194.2,4.803,61.91,0,0,870.0309,0,4.973,3.103,268,7.819,9.03,0.0379153,0,51.6,58.85,33.69,35.41
"2017-11-01 23:30:00",312682,0.604,192.5,4.756,61.02,0,0,870.033,0,6.285,3.09,302,7.823,9.01,0.0151661,0,51.6,58.85,33.69,35.41
"2017-11-01 23:40:00",312683,0.776,195.2,4.594,63.11,0,0,870.0267,0,3.91,3.115,261,7.825,9.03,0,0,51.6,58.79,33.69,35.4
"2017-11-01 23:50:00",312684,0.59,184.7,4.428,63.29,0,0,870.0262,0,4.162,3.113,237,7.758,9.02,0,0,51.6,58.85,33.69,35.41
